OBJECT B, 100750

Orbit data source: Space-Track

You're viewing an uncataloged RSO

Recently launched and/or uncataloged RSOs may have evolving metadata. Metadata may include the following, but is not limited to: Owner, Manufacturer, Bus, Motor, and Mission.

OBJECT B, 100750 is a satellite owned by Hangtian Hongtu (CN) in SSO that was launched on Sat, 19 Sep 2026 UTC launched from the Taiyaun Space Center, China (TSC). Unknown objects in Earth's orbit typically refer to objects detected orbiting the Earth but have not yet been identified or cataloged. These objects could be anything from previously untracked satellites, spent rocket stages, debris from satellite collisions, or even natural meteoroids temporarily captured by Earth's gravity.

Loading next visibility...
Identifier
100750, 2026-218B
Orbit
SSO
Country
Flag of CNCN / PRC
Related business
Manufacturer
Yinhe
Mission
Operational spacecraft
Bus & Motor
PIESAT, Unknown motor
Mass
270 kg wet, 270 kg dry
Launch date (UTC)
2026-09-19 (2 days ago)
Launch vehicle
Unknown
Launch site
Taiyaun Space Center, China (TSC)
Object type
Unknown
Shape & HBR
BOX + 2 PAN, 2.0 m
Radar Cross Section
RCS unknown

Expand to show TLE details & history
Last TLE update: 8 hours ago

TLE from 8 hours ago
0 OBJECT B
1 A0750U 26218B   26264.61117696  .00001773  00000-0  10209-3 0  9991
2 A0750  97.4913  90.5217 0010869 266.8288  93.1700 15.13682518   331
Epoch: 2026-09-21T14:40Z
TLE epoch observation values (Epoch: 2026-09-21T14:40:05.689Z)
Latitude
-0.00001°
Longitude
-129.99053°
Altitude
528.484 km
Speed
7.598 km/s
True Right ascension
06h 02m 05s
True Declination
0° 00' 00"
Sunlit
Object was in daylight at epoch
Visualization orbit readout
Latitude
Unknown
Longitude
Unknown
Altitude
Unknown
Speed
Unknown
Apparent Right ascension
Unknown
Apparent Declination
Unknown
Sunlit
N/A
Visualization observer readout
Local Sidereal Time
15:37:42
Azimuth
Unknown
Elevation
Unknown
Doppler factor
Unknown
Orbital elements
Apogee altitude
529.459 km
Perigee altitude
514.459 km
Semi-major axis
6,900.096 km
Eccentricity
0.00109
Inclination
97.4913°
RAAN
90.5217°
Arg. of periapsis
266.8288°
True anomaly
93.29435°
Mean anomaly
93.17°
Eccentric anomaly
93.23218°
Mean motion
3.7867 °/min
Orbital period
95.07 mins
BSTAR
0.00010209
Loading maneuver chart data...
Computing Atmospheric mass density...
Loading historical data...
Loading historical data...
Loading historical data...
Loading historical data...
Loading historical data...
Loading historical data...
Loading historical data...
Other satellites on launch #218 in the year 2026 (2026-09-19 UTC)

Documentation

Showing up to 5 results
|